Total_Precipitation_Accumulation
0.23 0.29 0.45 0.38 0.22 0.20 0.35 0.27 0.27 0.16 0.16 0.19 0.19 0.24 0.26 0.23 0.20 0.19 0.19 0.19 0.22 0.23 0.22 0.24 0.24 0.25 0.26 0.27 0.33 0.38 0.38 0.37 0.37 0.37 0.39 0.42 0.43 0.44 0.43 0.43 0.44 0.47 0.53 0.61
0.30 0.28 0.38 0.31 0.15 0.14 0.15 0.13 0.13 0.12 0.15 0.15 0.19 0.24 0.27 0.25 0.19 0.15 0.14 0.15 0.16 0.17 0.18 0.19 0.20 0.23 0.27 0.31 0.39 0.44 0.47 0.42 0.39 0.38 0.38 0.35 0.34 0.34 0.35 0.36 0.37 0.40 0.45 0.49
0.49 0.24 0.28 0.25 0.14 0.13 0.12 0.09 0.10 0.14 0.14 0.13 0.21 0.25 0.23 0.18 0.13 0.11 0.11 0.12 0.13 0.13 0.15 0.18 0.22 0.28 0.34 0.39 0.46 0.48 0.51 0.47 0.42 0.38 0.36 0.33 0.30 0.31 0.33 0.35 0.38 0.42 0.44 0.48
0.61 0.39 0.38 0.24 0.17 0.15 0.12 0.09 0.07 0.08 0.08 0.09 0.13 0.15 0.13 0.10 0.09 0.08 0.07 0.08 0.08 0.10 0.11 0.13 0.18 0.26 0.33 0.39 0.51 0.54 0.53 0.51 0.49 0.49 0.49 0.51 0.51 0.52 0.52 0.51 0.53 0.58 0.63 0.65
0.45 0.34 0.18 0.09 0.10 0.12 0.13 0.11 0.06 0.06 0.05 0.04 0.06 0.12 0.17 0.14 0.11 0.08 0.06 0.05 0.06 0.06 0.07 0.08 0.10 0.17 0.25 0.37 0.52 0.64 0.69 0.68 0.68 0.71 0.75 0.79 0.81 0.81 0.80 0.81 0.81 0.79 0.76 0.72
0.33 0.27 0.11 0.05 0.03 0.03 0.05 0.10 0.03 0.02 0.02 0.02 0.04 0.10 0.16 0.17 0.14 0.12 0.10 0.08 0.07 0.07 0.08 0.10 0.13 0.19 0.32 0.48 0.63 0.73 0.76 0.79 0.83 0.89 0.95 0.92 0.90 0.87 0.79 0.74 0.73 0.72 0.70 0.67
0.26 0.24 0.06 0.02 0.01 0.01 0.06 0.09 0.02 0.01 0.02 0.02 0.03 0.06 0.07 0.11 0.15 0.15 0.16 0.18 0.18 0.18 0.21 0.23 0.26 0.35 0.48 0.59 0.68 0.71 0.71 0.72 0.75 0.74 0.75 0.73 0.70 0.67 0.62 0.56 0.50 0.46 0.43 0.39
0.13 0.20 0.09 0.02 0.01 0.03 0.05 0.03 0.02 0.02 0.03 0.03 0.03 0.03 0.03 0.04 0.08 0.12 0.16 0.22 0.29 0.35 0.37 0.38 0.40 0.46 0.53 0.55 0.55 0.53 0.50 0.48 0.45 0.41 0.37 0.37 0.38 0.38 0.37 0.34 0.30 0.26 0.24 0.22
0.08 0.10 0.05 0.03 0.03 0.03 0.03 0.03 0.02 0.02 0.02 0.02 0.03 0.02 0.02 0.02 0.03 0.05 0.07 0.09 0.14 0.20 0.24 0.25 0.25 0.27 0.29 0.27 0.23 0.20 0.17 0.15 0.14 0.12 0.11 0.11 0.12 0.13 0.16 0.19 0.18 0.17 0.16 0.17
0.06 0.06 0.03 0.03 0.03 0.03 0.03 0.03 0.03 0.03 0.03 0.03 0.04 0.03 0.03 0.02 0.02 0.03 0.03 0.04 0.04 0.06 0.07 0.07 0.08 0.09 0.09 0.07 0.05 0.04 0.04 0.03 0.04 0.04 0.04 0.06 0.07 0.09 0.11 0.12 0.13 0.14 0.16 0.16
0.06 0.03 0.02 0.02 0.02 0.02 0.02 0.02 0.02 0.02 0.02 0.03 0.04 0.05 0.04 0.04 0.04 0.03 0.03 0.03 0.04 0.04 0.04 0.05 0.05 0.05 0.05 0.05 0.05 0.05 0.04 0.04 0.04 0.05 0.06 0.06 0.07 0.08 0.10 0.11 0.13 0.17 0.18 0.19
0.08 0.04 0.04 0.03 0.01 0.01 0.01 0.01 0.02 0.02 0.03 0.03 0.03 0.05 0.04 0.04 0.04 0.05 0.05 0.05 0.05 0.05 0.06 0.07 0.07 0.08 0.09 0.09 0.09 0.08 0.08 0.07 0.08 0.08 0.09 0.09 0.10 0.11 0.13 0.14 0.16 0.19 0.20 0.21
0.05 0.03 0.03 0.02 0.01 0.01 0.01 0.02 0.03 0.02 0.02 0.02 0.02 0.02 0.02 0.04 0.04 0.04 0.05 0.06 0.07 0.08 0.08 0.08 0.08 0.08 0.09 0.11 0.12 0.13 0.14 0.15 0.15 0.15 0.15 0.15 0.15 0.15 0.16 0.17 0.19 0.20 0.21 0.23
0.02 0.03 0.03 0.02 0.02 0.01 0.02 0.02 0.03 0.02 0.02 0.02 0.02 0.02 0.01 0.02 0.03 0.05 0.06 0.07 0.07 0.07 0.07 0.08 0.08 0.08 0.09 0.10 0.11 0.12 0.14 0.19 0.21 0.21 0.22 0.23 0.23 0.23 0.23 0.24 0.24 0.22 0.24 0.27
0.02 0.03 0.05 0.05 0.05 0.04 0.03 0.04 0.04 0.04 0.04 0.04 0.04 0.03 0.03 0.03 0.03 0.04 0.05 0.05 0.06 0.06 0.06 0.07 0.07 0.08 0.09 0.10 0.12 0.12 0.13 0.16 0.19 0.22 0.25 0.26 0.27 0.28 0.28 0.27 0.25 0.23 0.23 0.27
0.06 0.04 0.04 0.06 0.07 0.07 0.07 0.06 0.06 0.06 0.05 0.05 0.06 0.06 0.05 0.05 0.05 0.06 0.06 0.05 0.06 0.07 0.07 0.08 0.09 0.10 0.10 0.12 0.13 0.14 0.14 0.20 0.22 0.23 0.24 0.27 0.29 0.29 0.29 0.28 0.27 0.24 0.23 0.23
0.13 0.11 0.11 0.11 0.10 0.11 0.11 0.09 0.08 0.08 0.08 0.08 0.07 0.07 0.06 0.06 0.06 0.06 0.06 0.06 0.07 0.08 0.09 0.11 0.12 0.12 0.12 0.13 0.15 0.16 0.18 0.21 0.27 0.25 0.23 0.25 0.29 0.30 0.30 0.29 0.28 0.25 0.22 0.26
0.15 0.16 0.17 0.20 0.20 0.18 0.16 0.14 0.12 0.11 0.11 0.10 0.09 0.08 0.07 0.07 0.07 0.07 0.07 0.08 0.08 0.09 0.09 0.10 0.11 0.11 0.11 0.13 0.17 0.19 0.20 0.22 0.24 0.25 0.26 0.29 0.33 0.33 0.33 0.33 0.32 0.31 0.28 0.32
0.16 0.17 0.17 0.19 0.21 0.21 0.20 0.19 0.17 0.16 0.14 0.12 0.11 0.10 0.10 0.09 0.09 0.09 0.09 0.10 0.10 0.10 0.10 0.10 0.13 0.13 0.13 0.15 0.21 0.21 0.22 0.24 0.26 0.28 0.30 0.36 0.38 0.35 0.35 0.36 0.36 0.37 0.37 0.38
0.17 0.17 0.18 0.19 0.22 0.22 0.22 0.21 0.20 0.19 0.17 0.16 0.15 0.14 0.13 0.12 0.13 0.12 0.11 0.11 0.12 0.13 0.13 0.14 0.15 0.14 0.15 0.17 0.23 0.23 0.24 0.27 0.29 0.31 0.33 0.36 0.36 0.35 0.35 0.36 0.38 0.39 0.39 0.39
0.20 0.19 0.18 0.19 0.21 0.22 0.21 0.21 0.21 0.22 0.22 0.20 0.19 0.18 0.17 0.16 0.16 0.16 0.16 0.14 0.12 0.13 0.14 0.16 0.16 0.16 0.20 0.25 0.28 0.26 0.27 0.30 0.31 0.33 0.35 0.36 0.36 0.35 0.35 0.36 0.38 0.38 0.39 0.38
0.20 0.20 0.19 0.19 0.22 0.24 0.23 0.22 0.22 0.22 0.21 0.21 0.21 0.20 0.19 0.18 0.17 0.16 0.15 0.16 0.15 0.17 0.18 0.16 0.17 0.22 0.29 0.33 0.30 0.28 0.30 0.33 0.35 0.36 0.37 0.36 0.37 0.37 0.36 0.37 0.38 0.37 0.37 0.38
0.19 0.20 0.19 0.18 0.17 0.18 0.18 0.19 0.19 0.20 0.22 0.22 0.22 0.22 0.21 0.19 0.18 0.18 0.17 0.15 0.15 0.18 0.19 0.19 0.23 0.30 0.34 0.33 0.31 0.33 0.36 0.38 0.38 0.39 0.39 0.39 0.40 0.40 0.40 0.39 0.39 0.39 0.39 0.38
0.13 0.13 0.14 0.13 0.13 0.13 0.15 0.15 0.16 0.17 0.18 0.18 0.17 0.16 0.16 0.16 0.14 0.13 0.14 0.15 0.18 0.21 0.21 0.22 0.27 0.29 0.31 0.30 0.32 0.36 0.39 0.39 0.39 0.39 0.39 0.39 0.38 0.39 0.39 0.38 0.37 0.35 0.35 0.35
0.10 0.10 0.09 0.09 0.09 0.09 0.09 0.09 0.10 0.11 0.13 0.13 0.13 0.12 0.13 0.14 0.15 0.15 0.14 0.14 0.16 0.19 0.19 0.21 0.24 0.26 0.27 0.28 0.31 0.34 0.36 0.37 0.40 0.41 0.40 0.38 0.38 0.37 0.36 0.35 0.36 0.35 0.34 0.33
0.10 0.09 0.08 0.07 0.07 0.06 0.06 0.07 0.07 0.07 0.09 0.11 0.11 0.12 0.13 0.15 0.15 0.15 0.16 0.15 0.16 0.19 0.20 0.20 0.21 0.23 0.25 0.27 0.29 0.30 0.31 0.32 0.33 0.34 0.34 0.35 0.35 0.34 0.33 0.32 0.32 0.33 0.32 0.32
0.06 0.06 0.05 0.05 0.05 0.05 0.05 0.05 0.06 0.06 0.07 0.09 0.11 0.11 0.13 0.14 0.15 0.15 0.15 0.16 0.17 0.18 0.18 0.19 0.20 0.22 0.23 0.25 0.25 0.26 0.26 0.26 0.27 0.28 0.29 0.30 0.30 0.30 0.29 0.29 0.30 0.30 0.31 0.30